Location: Sungai Bunut
(2.6333°N, 113.7333°E)
Time: 01:17:07
(UTC+00:00)

S-56A Canister/Altair - Pass Details

Date: 11 December 2023
Orbit: 640 x 2488 km, 38.9° (Epoch: 24 February)

Event Time Altitude Azimuth Distance (km) Brightness Sun altitude
Rises 23:32:04 0° 246° (WSW) 5,503 11.5 15.8°
Reaches altitude 10° 23:36:29 10° 253° (WSW) 4,212 10.9 16.8°
Maximum altitude 23:45:52 35° 314° (NW) 2,097 9.5 18.9°
Drops below altitude 10° 23:52:26 10° 19° (NNE) 2,914 10.5 20.4°
Sets 23:54:58 0° 29° (NNE) 3,654 11.0 21.0°
